Location: Unspecified
(53.0000°N, 0.0000°E)
Time: 04:14:05
(UTC+00:00)

IRS-1C Rocket - Visible Passes

Search period start: 04 April 2026 00:00
Search period end: 14 April 2026 00:00
Orbit: 800 x 804 km, 98.7° (Epoch: 29 March)

Date Brightness Start Highest point End Pass type
(mag) Time Alt. Az. Time Alt. Az. Time Alt. Az.
4 Apr 5.2 20:04:57 17° ESE 20:07:53 28° ENE 20:12:17 10° N visible
4 Apr 4.4 21:45:54 46° SSW 21:47:16 62° WSW 21:52:31 10° NNW visible
4 Apr 6.6 23:26:52 10° W 23:28:05 11° W 23:29:23 10° WNW visible
5 Apr 5.7 19:38:25 10° E 19:42:03 19° NE 19:45:42 10° N visible
5 Apr 4.0 21:19:21 44° SSE 21:21:05 86° ENE 21:26:24 10° NNW visible
5 Apr 6.1 23:00:18 17° WSW 23:01:30 18° W 23:05:01 10° NW visible
6 Apr 6.1 19:13:50 10° ENE 19:16:19 14° NE 19:18:48 10° NNE visible
6 Apr 4.3 20:52:47 33° SE 20:55:00 57° ENE 21:00:10 10° N visible
6 Apr 5.6 22:33:45 25° WSW 22:35:02 27° W 22:39:32 10° NW visible
7 Apr 4.8 20:26:14 22° ESE 20:29:00 37° ENE 20:33:50 10° N visible
7 Apr 4.9 22:07:12 35° SW 22:08:41 43° W 22:13:43 10° NNW visible
8 Apr 5.3 19:59:40 14° ESE 20:03:06 26° ENE 20:07:24 10° N visible
8 Apr 4.3 21:40:38 41° S 21:42:25 67° WSW 21:47:42 10° NNW visible
8 Apr 6.5 23:21:36 11° W 23:23:10 12° W 23:25:09 10° WNW visible
9 Apr 5.8 19:33:50 10° E 19:37:18 18° NE 19:40:46 10° N visible
9 Apr 4.0 21:14:04 37° SSE 21:16:16 80° ENE 21:21:34 10° NNW visible
9 Apr 6.0 22:55:02 17° WSW 22:56:36 19° W 23:00:22 10° NW visible
10 Apr 4.4 20:47:31 27° SE 20:50:11 52° ENE 20:55:19 10° N visible
10 Apr 5.5 22:28:29 25° SW 22:30:10 30° W 22:34:47 10° NNW visible
11 Apr 4.9 20:20:58 18° ESE 20:24:13 35° ENE 20:28:58 10° N visible
11 Apr 4.8 22:01:56 33° SSW 22:03:49 46° W 22:08:56 10° NNW visible
12 Apr 5.5 19:54:25 11° ESE 19:58:20 24° NE 20:02:29 10° N visible
12 Apr 4.2 21:35:22 36° S 21:37:35 73° WSW 21:42:53 10° NNW visible
12 Apr 6.4 23:16:20 11° WSW 23:18:15 13° W 23:20:43 10° NW visible
13 Apr 5.9 19:29:16 10° E 19:32:32 17° NE 19:35:49 10° NNE visible
13 Apr 4.1 21:08:49 30° SSE 21:11:26 74° ENE 21:16:44 10° NNW visible
13 Apr 5.9 22:49:46 17° WSW 22:51:43 21° W 22:55:40 10° NW visible
